• In Deutschland
  • Länderverzeichnis
  • Für 7 Tage
  • Wassertemperatur
  • Satellitenkarten
  • Wetterkarte
  • Widgets
  • user-avatar
    Anmelden

    Stündliche Wetter Djambala

    Heute, 23 Juli, Montag

    Zeit Temperatur Niederschläge Wind Luftdruck Luftfeuchtigkeit
    00:00 +27°C° 0 mm 2 m/S 696 mmHg 52%
    01:00 +26°C° 0 mm 2 m/S 695 mmHg 56%
    02:00 +25°C° 0 mm 2 m/S 695 mmHg 60%
    03:00 +25°C° 0 mm 2 m/S 695 mmHg 64%
    04:00 +24°C° 0 mm 2 m/S 695 mmHg 68%
    05:00 +24°C° 0 mm 2 m/S 695 mmHg 69%
    06:00 +22°C° 0 mm 3 m/S 696 mmHg 71%
    07:00 +22°C° 0 mm 3 m/S 696 mmHg 72%
    08:00 +25°C° 0 mm 3 m/S 697 mmHg 66%
    09:00 +27°C° 0 mm 3 m/S 697 mmHg 59%
    10:00 +28°C° 0 mm 3 m/S 698 mmHg 53%
    11:00 +30°C° 0 mm 3 m/S 697 mmHg 47%
    12:00 +31°C° 0 mm 3 m/S 697 mmHg 41%
    13:00 +34°C° 0 mm 3 m/S 696 mmHg 35%
    14:00 +33°C° 0 mm 3 m/S 696 mmHg 34%
    15:00 +32°C° 0 mm 2 m/S 695 mmHg 33%
    16:00 +32°C° 0 mm 2 m/S 694 mmHg 32%
    17:00 +31°C° 0 mm 2 m/S 694 mmHg 34%
    18:00 +30°C° 0 mm 2 m/S 695 mmHg 36%
    19:00 +30°C° 0 mm 2 m/S 695 mmHg 38%
    20:00 +29°C° 0 mm 2 m/S 695 mmHg 42%
    21:00 +28°C° 0 mm 2 m/S 696 mmHg 46%
    22:00 +27°C° 0 mm 3 m/S 696 mmHg 50%
    23:00 +26°C° 0 mm 3 m/S 696 mmHg 54%

    Morgen, 24 Juli, Dienstag

    Zeit Temperatur Niederschläge Wind Luftdruck Luftfeuchtigkeit
    00:00 +26°C° 0 mm 3 m/S 696 mmHg 57%
    01:00 +25°C° 0 mm 3 m/S 696 mmHg 61%
    02:00 +24°C° 0 mm 3 m/S 696 mmHg 64%
    03:00 +24°C° 0 mm 3 m/S 695 mmHg 66%
    04:00 +23°C° 0 mm 2 m/S 695 mmHg 69%
    05:00 +22°C° 0 mm 3 m/S 695 mmHg 69%
    06:00 +21°C° 0 mm 3 m/S 696 mmHg 69%
    07:00 +21°C° 0 mm 3 m/S 696 mmHg 69%
    08:00 +24°C° 0 mm 3 m/S 697 mmHg 60%
    09:00 +26°C° 0 mm 3 m/S 697 mmHg 51%
    10:00 +28°C° 0 mm 3 m/S 698 mmHg 42%
    11:00 +30°C° 0 mm 3 m/S 697 mmHg 37%
    12:00 +33°C° 0 mm 3 m/S 697 mmHg 32%
    13:00 +34°C° 0 mm 3 m/S 696 mmHg 27%
    14:00 +35°C° 0 mm 3 m/S 696 mmHg 26%
    15:00 +35°C° 0 mm 3 m/S 695 mmHg 25%
    16:00 +35°C° 0 mm 3 m/S 695 mmHg 24%
    17:00 +33°C° 0 mm 3 m/S 695 mmHg 27%
    18:00 +31°C° 0 mm 2 m/S 695 mmHg 30%
    19:00 +29°C° 0 mm 2 m/S 695 mmHg 34%
    20:00 +28°C° 0 mm 2 m/S 695 mmHg 38%
    21:00 +28°C° 0 mm 3 m/S 696 mmHg 42%
    22:00 +27°C° 0 mm 3 m/S 696 mmHg 45%
    23:00 +26°C° 0 mm 3 m/S 696 mmHg 49%

    übermorgen, 25 Juli, Mittwoch

    Zeit Temperatur Niederschläge Wind Luftdruck Luftfeuchtigkeit
    00:00 +25°C° 0 mm 2 m/S 696 mmHg 52%
    01:00 +24°C° 0 mm 2 m/S 696 mmHg 55%
    02:00 +24°C° 0 mm 2 m/S 695 mmHg 58%
    03:00 +22°C° 0 mm 3 m/S 695 mmHg 61%
    04:00 +22°C° 0 mm 3 m/S 695 mmHg 64%
    05:00 +21°C° 0 mm 3 m/S 695 mmHg 66%
    06:00 +21°C° 0 mm 3 m/S 696 mmHg 67%
    07:00 +20°C° 0 mm 3 m/S 696 mmHg 69%
    08:00 +22°C° 0 mm 3 m/S 697 mmHg 61%
    09:00 +25°C° 0 mm 3 m/S 698 mmHg 54%
    10:00 +28°C° 0 mm 3 m/S 698 mmHg 47%
    11:00 +29°C° 0 mm 3 m/S 698 mmHg 41%
    12:00 +31°C° 0 mm 3 m/S 697 mmHg 36%
    13:00 +34°C° 0 mm 2 m/S 697 mmHg 31%
    14:00 +34°C° 0 mm 2 m/S 696 mmHg 29%
    15:00 +34°C° 0 mm 2 m/S 695 mmHg 27%
    16:00 +35°C° 0 mm 2 m/S 695 mmHg 25%
    17:00 +32°C° 0 mm 2 m/S 695 mmHg 28%
    18:00 +31°C° 0 mm 2 m/S 695 mmHg 31%
    19:00 +29°C° 0 mm 2 m/S 695 mmHg 34%
    20:00 +29°C° 0 mm 2 m/S 696 mmHg 37%
    21:00 +28°C° 0 mm 2 m/S 696 mmHg 40%
    22:00 +27°C° 0 mm 2 m/S 697 mmHg 44%
    23:00 +26°C° 0 mm 3 m/S 697 mmHg 47%

    26 Juli, Donnerstag

    Zeit Temperatur Niederschläge Wind Luftdruck Luftfeuchtigkeit
    00:00 +26°C° 0 mm 3 m/S 696 mmHg 50%
    01:00 +25°C° 0 mm 3 m/S 696 mmHg 53%
    02:00 +24°C° 0 mm 3 m/S 696 mmHg 57%
    03:00 +24°C° 0 mm 3 m/S 696 mmHg 60%
    04:00 +22°C° 0 mm 3 m/S 695 mmHg 64%
    05:00 +22°C° 0 mm 3 m/S 696 mmHg 65%
    06:00 +21°C° 0 mm 3 m/S 696 mmHg 67%
    07:00 +21°C° 0 mm 4 m/S 697 mmHg 68%
    08:00 +23°C° 0 mm 4 m/S 697 mmHg 61%
    09:00 +26°C° 0 mm 3 m/S 698 mmHg 54%
    10:00 +28°C° 0 mm 3 m/S 698 mmHg 48%
    11:00 +29°C° 0 mm 3 m/S 698 mmHg 43%
    12:00 +31°C° 0 mm 3 m/S 697 mmHg 39%
    13:00 +33°C° 0 mm 3 m/S 697 mmHg 34%
    14:00 +34°C° 0 mm 3 m/S 696 mmHg 33%
    15:00 +34°C° 0 mm 3 m/S 696 mmHg 32%
    16:00 +34°C° 0 mm 3 m/S 695 mmHg 31%
    17:00 +33°C° 0 mm 3 m/S 696 mmHg 34%
    18:00 +31°C° 0 mm 3 m/S 696 mmHg 37%
    19:00 +29°C° 0 mm 3 m/S 697 mmHg 40%
    20:00 +28°C° 0 mm 3 m/S 697 mmHg 43%
    21:00 +28°C° 0 mm 3 m/S 697 mmHg 46%
    22:00 +27°C° 0 mm 2 m/S 698 mmHg 49%
    23:00 +26°C° 0 mm 2 m/S 697 mmHg 51%

    27 Juli, Freitag

    Zeit Temperatur Niederschläge Wind Luftdruck Luftfeuchtigkeit
    00:00 +25°C° 0 mm 3 m/S 697 mmHg 52%
    01:00 +25°C° 0 mm 3 m/S 697 mmHg 54%
    02:00 +24°C° 0 mm 3 m/S 696 mmHg 56%
    03:00 +22°C° 0 mm 3 m/S 696 mmHg 59%
    04:00 +21°C° 0 mm 3 m/S 696 mmHg 61%
    05:00 +21°C° 0 mm 3 m/S 696 mmHg 63%
    06:00 +21°C° 0 mm 3 m/S 696 mmHg 66%
    07:00 +20°C° 0 mm 3 m/S 697 mmHg 68%
    08:00 +24°C° 0 mm 3 m/S 697 mmHg 60%
    09:00 +26°C° 0 mm 3 m/S 698 mmHg 53%
    10:00 +28°C° 0 mm 3 m/S 698 mmHg 45%
    11:00 +30°C° 0 mm 3 m/S 698 mmHg 40%
    12:00 +31°C° 0 mm 3 m/S 697 mmHg 36%
    13:00 +34°C° 0 mm 3 m/S 697 mmHg 31%
    14:00 +34°C° 0 mm 3 m/S 696 mmHg 30%
    15:00 +34°C° 0 mm 2 m/S 696 mmHg 29%
    16:00 +34°C° 0 mm 2 m/S 695 mmHg 28%
    17:00 +32°C° 0 mm 2 m/S 695 mmHg 30%
    18:00 +31°C° 0 mm 2 m/S 696 mmHg 33%
    19:00 +30°C° 0 mm 2 m/S 696 mmHg 35%
    20:00 +29°C° 0 mm 2 m/S 696 mmHg 37%
    21:00 +29°C° 0 mm 2 m/S 697 mmHg 39%
    22:00 +28°C° 0 mm 2 m/S 697 mmHg 41%
    23:00 +27°C° 0 mm 2 m/S 697 mmHg 43%

    28 Juli, Samstag

    Zeit Temperatur Niederschläge Wind Luftdruck Luftfeuchtigkeit
    00:00 +26°C° 0 mm 2 m/S 697 mmHg 46%
    01:00 +26°C° 0 mm 2 m/S 696 mmHg 48%
    02:00 +25°C° 0 mm 2 m/S 696 mmHg 50%
    03:00 +24°C° 0 mm 3 m/S 696 mmHg 52%
    04:00 +24°C° 0 mm 3 m/S 696 mmHg 55%
    05:00 +22°C° 0 mm 3 m/S 696 mmHg 57%
    06:00 +22°C° 0 mm 3 m/S 696 mmHg 60%
    07:00 +21°C° 0 mm 3 m/S 697 mmHg 63%
    08:00 +24°C° 0 mm 3 m/S 697 mmHg 56%
    09:00 +26°C° 0 mm 3 m/S 698 mmHg 50%
    10:00 +28°C° 0 mm 4 m/S 698 mmHg 44%
    11:00 +30°C° 0 mm 4 m/S 698 mmHg 40%
    12:00 +32°C° 0 mm 4 m/S 697 mmHg 36%
    13:00 +34°C° 0 mm 4 m/S 696 mmHg 32%
    14:00 +34°C° 0 mm 3 m/S 696 mmHg 31%
    15:00 +34°C° 0 mm 3 m/S 695 mmHg 31%
    16:00 +34°C° 0 mm 3 m/S 695 mmHg 30%
    17:00 +33°C° 0 mm 3 m/S 695 mmHg 32%
    18:00 +31°C° 0 mm 3 m/S 696 mmHg 34%
    19:00 +30°C° 0 mm 3 m/S 696 mmHg 36%
    20:00 +29°C° 0 mm 3 m/S 696 mmHg 37%
    21:00 +28°C° 0 mm 3 m/S 697 mmHg 38%
    22:00 +27°C° 0 mm 4 m/S 697 mmHg 40%
    23:00 +26°C° 0 mm 3 m/S 697 mmHg 42%
    Mehr zeigen